Location: *
(46.1006°N, 1.8394°E)
Time: 04:19:00
(UTC+00:00)

Cosmos 1602 Rocket - Pass Details

Date: 20 September 2019
Orbit: 603 x 634 km, 82.5° (Epoch: 18 October)

Event Time Altitude Azimuth Distance (km) Brightness Sun altitude
Rises 19:48:01 0° 357° (N) 2,887 7.4 -19.9°
Reaches altitude 10° 19:50:23 10° 5° (N) 1,973 6.4 -20.2°
Enters shadow 19:53:56 37° 56° (NE) 944 4.2 -20.8°
